When you browse on this site, cookies collect data to enhance your experience and personalize the content and advertising you see.
Visit our Privacy Policy to learn more. By continuing to use the site, you agree to this use of cookies and data.
  • In United Kingdom
  • List of Countries
  • For 7 days
  • Water Temperature
  • Weather Map
  • Weather Widgets
  • user-avatar
    Login

    Hourly Weather Rochester

    Today, 17 November, Sunday

    Time Temperature Precipitation Wind Pressure Humidity
    00:00 -12°C° 0 mm 3 mps 757 mmHg 88%
    01:00 -12°C° 0 mm 3 mps 757 mmHg 87%
    02:00 -13°C° 0 mm 3 mps 756 mmHg 86%
    03:00 -13°C° 0 mm 3 mps 756 mmHg 85%
    04:00 -13°C° 0 mm 3 mps 755 mmHg 84%
    05:00 -13°C° 0 mm 3 mps 755 mmHg 82%
    06:00 -13°C° 0 mm 3 mps 755 mmHg 81%
    07:00 -13°C° 0 mm 3 mps 755 mmHg 79%
    08:00 -10°C° 0 mm 3 mps 754 mmHg 79%
    09:00 -8°C° 0 mm 3 mps 754 mmHg 79%
    10:00 -7°C° 0 mm 4 mps 753 mmHg 79%
    11:00 -4°C° 0 mm 4 mps 753 mmHg 83%
    12:00 -3°C° 0 mm 4 mps 752 mmHg 87%
    13:00 -2°C° 0 mm 4 mps 751 mmHg 91%
    14:00 -2°C° 0 mm 4 mps 751 mmHg 90%
    15:00 -2°C° 0 mm 4 mps 750 mmHg 90%
    16:00 -2°C° 0 mm 4 mps 750 mmHg 90%
    17:00 -2°C° 0 mm 4 mps 749 mmHg 89%
    18:00 -3°C° 0 mm 4 mps 749 mmHg 89%
    19:00 -4°C° 0 mm 4 mps 749 mmHg 89%
    20:00 -4°C° 0 mm 4 mps 749 mmHg 89%
    21:00 -4°C° 0 mm 4 mps 748 mmHg 90%
    22:00 -4°C° 0 mm 4 mps 748 mmHg 90%
    23:00 -4°C° 0 mm 4 mps 747 mmHg 91%

    Tomorrow, 18 November, Monday

    Time Temperature Precipitation Wind Pressure Humidity
    00:00 -4°C° 0 mm 4 mps 747 mmHg 91%
    01:00 -4°C° 0 mm 4 mps 747 mmHg 91%
    02:00 -5°C° 0 mm 4 mps 746 mmHg 91%
    03:00 -5°C° 0 mm 4 mps 746 mmHg 92%
    04:00 -5°C° 0 mm 3 mps 745 mmHg 92%
    05:00 -5°C° 0 mm 3 mps 745 mmHg 92%
    06:00 -5°C° 0 mm 3 mps 745 mmHg 92%
    07:00 -5°C° 0 mm 3 mps 745 mmHg 92%
    08:00 -3°C° 0 mm 2 mps 744 mmHg 94%
    09:00 -2°C° 0 mm 2 mps 744 mmHg 97%
    10:00 -1°C° 0 mm 2 mps 743 mmHg 99%
    11:00 +1°C° 0 mm 2 mps 743 mmHg 99%
    12:00 +1°C° 0 mm 2 mps 742 mmHg 99%
    13:00 +2°C° 0 mm 1 mps 742 mmHg 99%
    14:00 +2°C° 0 mm 1 mps 742 mmHg 99%
    15:00 +2°C° 0 mm 1 mps 741 mmHg 99%
    16:00 +2°C° 0 mm 1 mps 741 mmHg 99%
    17:00 +2°C° 0 mm 1 mps 741 mmHg 99%
    18:00 +1°C° 0 mm 0 mps 741 mmHg 99%
    19:00 +1°C° 0 mm 0 mps 741 mmHg 99%
    20:00 +1°C° 0 mm 0 mps 741 mmHg 99%
    21:00 +1°C° 0 mm 0 mps 740 mmHg 99%
    22:00 +2°C° 0 mm 1 mps 740 mmHg 99%
    23:00 +2°C° 0 mm 1 mps 740 mmHg 99%

    Day after tomorrow, 19 November, Tuesday

    Time Temperature Precipitation Wind Pressure Humidity
    00:00 +1°C° 0 mm 2 mps 740 mmHg 99%
    01:00 +1°C° 0 mm 2 mps 740 mmHg 99%
    02:00 +1°C° 0 mm 2 mps 740 mmHg 98%
    03:00 +1°C° 0 mm 2 mps 740 mmHg 97%
    04:00 -1°C° 0 mm 3 mps 740 mmHg 97%
    05:00 0°C° 0 mm 3 mps 740 mmHg 97%
    06:00 0°C° 0 mm 3 mps 740 mmHg 98%
    07:00 0°C° 0 mm 3 mps 740 mmHg 98%
    08:00 0°C° 0 mm 3 mps 740 mmHg 98%
    09:00 0°C° 0 mm 3 mps 741 mmHg 99%
    10:00 0°C° 0 mm 3 mps 741 mmHg 99%
    11:00 0°C° 0 mm 3 mps 741 mmHg 99%
    12:00 0°C° 0 mm 3 mps 741 mmHg 99%
    13:00 +1°C° 0 mm 3 mps 741 mmHg 99%
    14:00 +1°C° 0 mm 3 mps 741 mmHg 99%
    15:00 0°C° 0 mm 3 mps 741 mmHg 99%
    16:00 0°C° 0 mm 3 mps 742 mmHg 99%
    17:00 0°C° 0 mm 3 mps 742 mmHg 99%
    18:00 0°C° 0 mm 3 mps 742 mmHg 98%
    19:00 -1°C° 0 mm 3 mps 742 mmHg 98%
    20:00 -1°C° 0 mm 3 mps 742 mmHg 96%
    21:00 -2°C° 0 mm 3 mps 742 mmHg 95%
    22:00 -2°C° 0 mm 3 mps 742 mmHg 93%
    23:00 -2°C° 0 mm 3 mps 742 mmHg 93%

    20 November, Wednesday

    Time Temperature Precipitation Wind Pressure Humidity
    00:00 -2°C° 0 mm 3 mps 742 mmHg 93%
    01:00 -2°C° 0 mm 3 mps 742 mmHg 94%
    02:00 -3°C° 0.1 mm 4 mps 743 mmHg 95%
    03:00 -2°C° 0.1 mm 4 mps 743 mmHg 96%
    04:00 -2°C° 0.1 mm 4 mps 743 mmHg 97%
    05:00 -2°C° 0.1 mm 4 mps 743 mmHg 96%
    06:00 -2°C° 0.1 mm 4 mps 744 mmHg 95%
    07:00 -3°C° 0.1 mm 4 mps 744 mmHg 94%
    08:00 -2°C° 0 mm 4 mps 744 mmHg 95%
    09:00 -2°C° 0 mm 4 mps 745 mmHg 95%
    10:00 -1°C° 0 mm 4 mps 745 mmHg 95%
    11:00 -1°C° 0 mm 4 mps 745 mmHg 95%
    12:00 0°C° 0 mm 4 mps 745 mmHg 95%
    13:00 0°C° 0 mm 4 mps 745 mmHg 95%
    14:00 0°C° 0 mm 4 mps 745 mmHg 96%
    15:00 0°C° 0 mm 4 mps 746 mmHg 97%
    16:00 -1°C° 0 mm 4 mps 746 mmHg 97%
    17:00 0°C° 0 mm 3 mps 746 mmHg 97%
    18:00 +1°C° 0 mm 3 mps 747 mmHg 97%
    19:00 +1°C° 0 mm 3 mps 747 mmHg 97%
    20:00 0°C° 0 mm 3 mps 747 mmHg 97%
    21:00 0°C° 0 mm 3 mps 748 mmHg 97%
    22:00 -1°C° 0 mm 4 mps 748 mmHg 96%
    23:00 -1°C° 0 mm 4 mps 748 mmHg 96%

    21 November, Thursday

    Time Temperature Precipitation Wind Pressure Humidity
    00:00 0°C° 0 mm 3 mps 748 mmHg 96%
    01:00 0°C° 0 mm 3 mps 748 mmHg 96%
    02:00 0°C° 0 mm 3 mps 748 mmHg 96%
    03:00 0°C° 0 mm 3 mps 748 mmHg 96%
    04:00 0°C° 0 mm 3 mps 749 mmHg 96%
    05:00 -1°C° 0 mm 3 mps 749 mmHg 95%
    06:00 -1°C° 0 mm 2 mps 749 mmHg 94%
    07:00 -2°C° 0 mm 2 mps 749 mmHg 93%
    08:00 -1°C° 0 mm 2 mps 748 mmHg 92%
    09:00 +2°C° 0 mm 2 mps 748 mmHg 91%
    10:00 +3°C° 0 mm 2 mps 748 mmHg 91%
    11:00 +3°C° 0 mm 3 mps 747 mmHg 90%
    12:00 +4°C° 0 mm 3 mps 746 mmHg 90%
    13:00 +5°C° 0 mm 3 mps 745 mmHg 89%
    14:00 +5°C° 0 mm 3 mps 744 mmHg 90%
    15:00 +5°C° 0 mm 4 mps 743 mmHg 90%
    16:00 +5°C° 0 mm 4 mps 742 mmHg 90%
    17:00 +5°C° 0.3 mm 4 mps 741 mmHg 90%
    18:00 +6°C° 0.3 mm 4 mps 741 mmHg 89%
    19:00 +6°C° 0.3 mm 4 mps 740 mmHg 88%
    20:00 +7°C° 0.6 mm 5 mps 739 mmHg 88%
    21:00 +9°C° 0.6 mm 6 mps 738 mmHg 87%
    22:00 +10°C° 0.6 mm 7 mps 737 mmHg 87%
    23:00 +10°C° 0.1 mm 7 mps 736 mmHg 86%

    22 November, Friday

    Time Temperature Precipitation Wind Pressure Humidity
    00:00 +11°C° 0.1 mm 7 mps 735 mmHg 86%
    01:00 +11°C° 0.1 mm 7 mps 734 mmHg 85%
    02:00 +11°C° 0 mm 8 mps 733 mmHg 84%
    03:00 +9°C° 0 mm 10 mps 733 mmHg 82%
    04:00 +8°C° 0 mm 11 mps 733 mmHg 80%
    05:00 +7°C° 0 mm 10 mps 734 mmHg 81%
    06:00 +6°C° 0 mm 10 mps 735 mmHg 81%
    07:00 +5°C° 0 mm 9 mps 735 mmHg 82%
    08:00 +5°C° 0 mm 9 mps 736 mmHg 80%
    09:00 +3°C° 0 mm 9 mps 737 mmHg 78%
    10:00 +3°C° 0 mm 9 mps 738 mmHg 77%
    11:00 +4°C° 0 mm 8 mps 738 mmHg 76%
    12:00 +4°C° 0 mm 7 mps 738 mmHg 74%
    13:00 +4°C° 0 mm 7 mps 738 mmHg 73%
    14:00 +3°C° 0 mm 6 mps 738 mmHg 73%
    15:00 +3°C° 0 mm 6 mps 738 mmHg 73%
    16:00 +2°C° 0 mm 6 mps 738 mmHg 73%
    17:00 +2°C° 0 mm 6 mps 738 mmHg 75%
    18:00 +1°C° 0 mm 5 mps 738 mmHg 77%
    19:00 +1°C° 0 mm 5 mps 738 mmHg 79%
    20:00 -1°C° 0 mm 6 mps 738 mmHg 77%
    21:00 -2°C° 0 mm 6 mps 738 mmHg 75%
    22:00 -3°C° 0 mm 7 mps 739 mmHg 73%
    23:00 -3°C° 0 mm 7 mps 739 mmHg 76%
    Show more